GW2646 Weather Reports


time (UTC)temp
F
wind
direction
speed
knots
gust
knots
rain 1hr
in
rain 24hr
in
rain mn
in
humidity
%
barometer
mb
20260503212049 77 300 2.6 7.8 0.00 0.00 0.00 50 1011.7
20260503211550 77 221 1.7 8.7 0.00 0.00 0.00 50 1011.8
20260503211048 76 263 2.6 8.7 0.00 0.00 0.00 49 1011.9
20260503210548 76 315 2.6 8.7 0.00 0.00 0.00 50 1011.9
20260503205548 77 273 0.9 0.9 0.00 0.00 0.00 51 1012.0
20260503131045 49 0 0.0 0.0 0.00 0.00 0.00 94 1014.0
20260503130545 50 0 0.0 0.0 0.00 0.00 0.00 94 1014.1
20260503110545 50 0 0.0 0.0 0.00 0.00 0.00 93 1014.4
20260503081627 52 0 0.0 0.0 0.00 0.00 0.00 87 1014.6
20260503081047 52 0 0.0 0.0 0.00 0.00 0.00 87 1014.5
20260503080547 53 0 0.0 0.0 0.00 0.00 0.00 86 1014.5
20260503080111 53 0 0.0 0.0 0.00 0.00 0.00 86 1014.5
20260503072546 53 0 0.0 0.9 0.00 0.00 0.00 84 1014.7
20260503072047 53 0 0.0 0.9 0.00 0.00 0.00 84 1014.6
20260503071554 53 0 0.0 0.9 0.00 0.00 0.00 83 1014.6
20260503071047 53 0 0.0 0.0 0.00 0.00 0.00 83 1014.6
20260503070549 53 0 0.0 0.9 0.00 0.00 0.00 83 1014.6
20260503055046 57 0 0.0 0.9 0.00 0.00 0.00 77 1014.3
20260503054600 57 0 0.0 0.9 0.00 0.00 0.00 77 1014.2
20260503054046 57 0 0.0 1.7 0.00 0.00 0.00 77 1014.2
20260503053545 57 0 0.0 1.7 0.00 0.00 0.00 77 1014.2
20260503053058 57 0 0.0 0.0 0.00 0.00 0.00 76 1014.3
20260503052544 58 0 0.0 0.0 0.00 0.00 0.00 75 1014.3
20260503052046 58 0 0.0 0.9 0.00 0.00 0.00 74 1014.3
20260503051553 59 0 0.0 0.9 0.00 0.00 0.00 73 1014.2
20260503051046 60 253 0.0 0.0 0.00 0.00 0.00 72 1014.2
20260503050546 60 0 0.0 0.9 0.00 0.00 0.00 69 1014.1
20260503050053 61 0 0.0 0.9 0.00 0.00 0.00 69 1014.1
20260503045547 61 0 0.0 0.9 0.00 0.00 0.00 67 1014.1
20260503045046 61 0 0.0 0.0 0.00 0.00 0.00 67 1014.0
20260503044552 62 0 0.0 0.9 0.00 0.00 0.00 67 1014.0
20260503044045 62 0 0.0 0.9 0.00 0.00 0.00 66 1013.9
20260503043545 62 0 0.0 1.7 0.00 0.00 0.00 66 1013.9
20260503043051 62 0 0.0 1.7 0.00 0.00 0.00 66 1014.0
20260503042544 62 0 0.0 1.7 0.00 0.00 0.00 66 1013.9
20260503042049 63 0 0.0 1.7 0.00 0.00 0.00 65 1013.8
20260503041552 63 0 0.0 2.6 0.00 0.00 0.00 65 1013.7
20260503041047 63 254 0.0 2.6 0.00 0.00 0.00 64 1013.6
20260503040545 63 256 0.0 2.6 0.00 0.00 0.00 64 1013.6
20260503040051 64 267 0.0 1.7 0.00 0.00 0.00 63 1013.6
20260503035549 64 0 0.0 0.9 0.00 0.00 0.00 63 1013.6
20260503035048 64 0 0.0 1.7 0.00 0.00 0.00 62 1013.5
20260503034551 65 0 0.0 1.7 0.00 0.00 0.00 61 1013.4
20260503034046 65 0 0.0 1.7 0.00 0.00 0.00 60 1013.3
20260503033546 66 0 0.0 1.7 0.00 0.00 0.00 60 1013.3
20260503033103 66 259 0.0 3.5 0.00 0.00 0.00 59 1013.2
20260503032547 67 0 0.0 3.5 0.00 0.00 0.00 58 1013.1
20260503032050 67 0 0.0 2.6 0.00 0.00 0.00 57 1013.2
20260503031556 68 0 0.0 2.6 0.00 0.00 0.00 56 1013.2
20260503031046 68 0 0.0 2.6 0.00 0.00 0.00 55 1013.1
20260503030548 68 0 0.0 2.6 0.00 0.00 0.00 55 1013.0
20260503030104 69 0 0.0 3.5 0.00 0.00 0.00 54 1013.0
20260503025545 69 0 0.9 3.5 0.00 0.00 0.00 53 1013.0
20260503025047 70 0 0.9 3.5 0.00 0.00 0.00 53 1012.9
20260503024618 70 0 0.0 5.2 0.00 0.00 0.00 52 1012.9
20260503024044 70 306 0.9 5.2 0.00 0.00 0.00 52 1012.9
20260503023549 71 243 0.9 3.5 0.00 0.00 0.00 51 1012.8
20260503023053 71 0 0.0 3.5 0.00 0.00 0.00 50 1012.8
20260503022549 71 324 0.9 5.2 0.00 0.00 0.00 50 1012.9
20260503022048 71 276 0.9 6.1 0.00 0.00 0.00 50 1012.8
20260503021558 71 305 1.7 6.1 0.00 0.00 0.00 49 1012.8
20260503021048 72 276 0.9 7.0 0.00 0.00 0.00 48 1012.9
20260503020551 72 304 1.7 7.0 0.00 0.00 0.00 48 1012.9
20260503020050 73 323 1.7 6.1 0.00 0.00 0.00 47 1012.8
20260503015551 73 305 1.7 6.1 0.00 0.00 0.00 47 1012.9
20260503015047 73 307 1.7 7.0 0.00 0.00 0.00 47 1012.9
20260503014553 73 299 0.9 7.0 0.00 0.00 0.00 46 1012.9
20260503014048 74 307 0.9 4.3 0.00 0.00 0.00 46 1013.0
20260503013550 74 0 0.9 4.3 0.00 0.00 0.00 46 1013.0
20260503013050 74 294 0.0 5.2 0.00 0.00 0.00 46 1013.1
20260503012554 74 316 1.7 5.2 0.00 0.00 0.00 46 1013.1
20260503012047 74 309 1.7 6.1 0.00 0.00 0.00 46 1013.0
20260503011559 74 317 1.7 7.0 0.00 0.00 0.00 46 1013.0
20260503011049 74 344 1.7 7.0 0.00 0.00 0.00 47 1013.1
20260503010548 74 349 1.7 7.0 0.00 0.00 0.00 46 1013.1
20260503010051 73 334 1.7 7.0 0.00 0.00 0.00 46 1013.2
20260503005548 73 283 1.7 8.7 0.00 0.00 0.00 47 1013.3
20260503005048 73 318 3.5 8.7 0.00 0.00 0.00 47 1013.4
20260503004618 73 313 2.6 8.7 0.00 0.00 0.00 46 1013.4
20260503004047 73 294 2.6 9.6 0.00 0.00 0.00 46 1013.5
20260503003548 73 296 2.6 9.6 0.00 0.00 0.00 46 1013.4
20260503003051 73 303 3.5 7.0 0.00 0.00 0.00 47 1013.4
20260503002551 73 348 2.6 10.4 0.00 0.00 0.00 47 1013.4
20260503002048 73 279 2.6 10.4 0.00 0.00 0.00 49 1013.3
20260503001600 73 315 3.5 10.4 0.00 0.00 0.00 50 1013.3
20260503001048 73 294 4.3 9.6 0.00 0.00 0.00 51 1013.3
20260503000547 73 260 4.3 9.6 0.00 0.00 0.00 51 1013.5
20260503000106 73 265 4.3 9.6 0.00 0.00 0.00 50 1013.5
20260502235548 73 303 3.5 9.6 0.00 0.00 0.00 52 1013.6
20260502235048 73 296 3.5 9.6 0.00 0.00 0.00 51 1013.6
20260502234616 74 286 3.5 8.7 0.00 0.00 0.00 50 1013.6
20260502234048 73 0 1.7 8.7 0.00 0.00 0.00 52 1013.7
20260502233547 73 16 3.5 10.4 0.00 0.00 0.00 51 1013.7
20260502233108 73 277 3.5 10.4 0.00 0.00 0.00 52 1013.7
20260502232548 74 295 0.9 7.8 0.00 0.00 0.00 48 1013.7
20260502232048 73 307 2.6 7.8 0.00 0.00 0.00 51 1013.7
20260502231606 73 242 2.6 7.8 0.00 0.00 0.00 51 1013.8
20260502231051 74 244 0.9 7.0 0.00 0.00 0.00 50 1013.8
20260502230546 73 291 3.5 7.0 0.00 0.00 0.00 51 1013.9
20260502230053 73 300 2.6 7.0 0.00 0.00 0.00 52 1013.9
20260502225548 73 0 2.6 7.0 0.00 0.00 0.00 54 1014.0
20260502225045 73 77 2.6 9.6 0.00 0.00 0.00 53 1014.0
20260502224549 73 280 2.6 9.6 0.00 0.00 0.00 56 1014.1
20260502224045 73 213 2.6 8.7 0.00 0.00 0.00 56 1014.1
20260502223546 73 302 3.5 8.7 0.00 0.00 0.00 57 1014.3
20260502223055 74 327 1.7 8.7 0.00 0.00 0.00 56 1014.3
20260502222543 73 190 1.7 8.7 0.00 0.00 0.00 58 1014.3
20260502222045 72 309 5.2 8.7 0.00 0.00 0.00 59 1014.4
20260502221601 72 311 3.5 8.7 0.00 0.00 0.00 59 1014.5
20260502221045 72 268 3.5 8.7 0.00 0.00 0.00 60 1014.5
20260502220548 72 289 3.5 10.4 0.00 0.00 0.00 60 1014.5
20260502220053 72 275 4.3 10.4 0.00 0.00 0.00 60 1014.6
20260502215546 72 0 3.5 10.4 0.00 0.00 0.00 61 1014.6
20260502215049 73 306 3.5 7.8 0.00 0.00 0.00 61 1014.6
20260502214603 73 302 1.7 7.0 0.00 0.00 0.00 62 1014.6
20260502214046 72 232 2.6 7.8 0.00 0.00 0.00 61 1014.8
20260502213546 73 322 0.9 7.8 0.00 0.00 0.00 62 1015.0
20260502213055 72 291 2.6 12.2 0.00 0.00 0.00 63 1015.0
20260502212546 71 277 1.7 12.2 0.00 0.00 0.00 64 1015.0